Location: Vihti�l�
(61.3833°N, 23.0667°E)
Time: 03:56:25
(UTC+00:00)

NOSS 2-3 (E) - Pass Details

Date: 29 November 2020
Orbit: 566 x 1646 km, 63.4° (Epoch: 13 January)

Event Time Altitude Azimuth Distance (km) Brightness Sun altitude
Exits shadow 02:58:17 73° 356° (N) 897 4.2 -28.1°
Maximum altitude 02:58:19 73° 359° (N) 898 4.2 -28.1°
Drops below altitude 10° 03:04:57 10° 85° (E) 2,885 8.0 -27.3°
Sets 03:08:01 0° 87° (E) 4,023 9.0 -26.9°
